Theta_e
289 288 288 288 288 287 287 287 287 287 286 286 285 285 285 285 284 284 284 283 283 283 283 283 283 283 283 282 282 281 281 281 280 280 280 280 280 280 280 280 279 278 278 278 278 278 277 277 277 277 277 277 277 277 277 276 276 276 275 275 275 274 274
289 289 288 288 287 287 287 287 287 287 286 285 285 285 284 284 284 283 283 283 283 283 283 283 282 282 282 282 282 281 281 280 280 280 280 280 280 280 280 279 279 278 277 277 277 277 277 276 276 276 276 276 276 276 275 275 275 274 274 274 274 274 274
288 288 288 288 287 287 287 287 286 286 286 285 285 284 284 284 284 283 283 283 283 283 282 282 282 282 282 282 281 281 281 280 280 279 279 279 279 279 279 279 279 278 277 276 276 277 276 276 276 276 275 275 275 275 275 274 274 274 273 273 273 273 273
287 287 287 287 287 287 287 286 286 286 285 285 285 284 284 284 284 283 283 283 283 283 282 282 281 281 281 281 281 280 280 280 279 279 279 279 279 279 279 279 279 278 278 277 276 276 276 276 275 275 275 275 274 274 274 274 274 273 273 273 272 272 272
285 286 286 286 286 286 286 286 286 286 285 285 285 284 284 284 283 283 283 283 283 283 282 282 281 281 281 281 280 280 280 279 279 279 279 278 279 279 278 278 278 278 278 277 276 276 276 275 275 275 274 274 274 273 273 273 273 273 272 272 272 272 272
285 285 285 285 285 285 285 285 285 285 285 285 284 284 284 283 283 283 283 282 282 282 282 282 282 281 281 280 280 280 280 280 279 279 278 278 278 278 278 278 277 277 277 276 276 275 275 274 274 274 274 273 273 273 273 272 272 272 272 272 272 272 272
284 284 284 284 284 284 284 284 284 284 284 284 284 284 283 283 283 282 282 282 282 282 282 282 281 281 281 280 280 280 280 279 279 279 278 278 278 278 277 277 276 276 276 275 275 274 274 273 273 273 273 273 273 272 272 272 271 271 271 271 271 271 271
283 283 283 283 283 283 283 283 283 283 283 283 283 283 283 283 282 282 282 282 281 281 281 281 281 281 281 280 280 280 280 280 279 279 278 278 277 277 276 276 275 275 274 274 273 273 273 273 272 272 272 271 271 271 271 271 270 270 270 270 270 270 270
280 281 282 282 282 282 282 282 282 282 282 282 282 282 282 282 282 282 281 281 281 281 281 280 280 280 280 280 280 280 280 280 279 279 278 278 277 276 276 275 275 274 273 273 272 272 271 271 271 271 270 270 270 270 270 270 270 269 269 269 269 269 269
279 279 280 280 281 281 281 281 281 281 281 281 281 281 281 281 281 281 281 281 280 280 280 280 280 280 280 280 279 279 279 279 279 279 278 278 277 277 276 275 274 273 273 272 271 271 271 270 269 270 270 270 270 270 270 270 269 269 269 268 268 268 268
278 278 278 278 279 279 279 280 280 280 280 280 280 280 281 281 281 281 281 280 280 280 280 280 280 280 279 279 279 279 279 278 278 278 278 278 277 277 277 276 274 273 273 272 271 271 271 270 269 270 270 270 270 270 270 269 269 268 268 268 267 267 268
277 277 277 277 278 278 278 278 278 278 278 279 279 279 279 280 280 281 281 281 280 280 280 279 279 279 279 279 279 279 278 278 278 277 277 277 277 277 276 276 276 275 274 273 272 271 270 270 270 270 270 270 270 270 270 269 269 268 268 268 267 267 267
276 276 277 277 277 277 277 277 278 277 277 277 277 277 278 278 279 279 280 280 280 280 280 279 279 279 279 279 279 278 278 277 277 277 276 276 276 276 275 275 275 275 275 274 273 272 271 271 271 271 271 271 271 270 269 268 268 268 268 267 267 267 267
275 275 275 276 276 276 276 276 277 277 277 277 277 277 277 277 278 278 278 279 279 280 280 280 279 279 279 279 278 278 277 277 276 276 276 275 275 275 274 274 274 274 274 275 274 273 272 272 272 272 272 272 271 270 269 268 268 268 268 268 268 268 268
273 274 274 275 275 275 275 275 276 276 276 276 276 276 276 276 276 277 277 277 278 278 279 279 279 279 279 278 278 278 278 277 276 276 275 275 274 274 274 274 274 274 274 274 273 273 273 273 272 272 272 271 270 269 269 268 268 268 268 268 267 267 267
272 272 273 273 274 274 274 274 274 275 275 275 275 275 275 275 275 275 276 276 277 277 278 278 279 279 279 278 278 278 277 277 276 275 275 274 274 273 273 273 273 273 273 273 273 273 273 273 272 271 271 270 269 269 269 268 268 267 267 267 266 266 266
271 271 271 272 272 273 274 274 274 274 274 274 274 275 275 274 274 274 275 275 276 276 277 277 278 278 278 278 277 277 277 276 276 275 275 274 273 272 272 272 272 272 272 273 273 273 272 272 271 270 270 270 269 269 269 268 267 267 267 266 265 265 265
270 270 271 271 271 272 273 273 273 273 273 273 273 274 274 274 274 274 274 274 275 276 276 277 277 278 278 277 277 277 276 276 275 275 274 274 273 272 272 271 271 271 272 272 272 272 271 271 271 270 270 270 270 270 270 269 268 268 267 266 265 265 265
270 270 270 270 271 271 272 273 273 273 272 272 273 273 273 273 273 273 273 273 274 275 275 276 276 277 277 276 276 276 276 275 275 274 274 273 272 272 271 271 271 271 271 271 271 271 271 271 271 271 271 271 271 271 270 269 268 268 267 266 266 266 265
270 269 269 270 270 271 272 272 272 272 271 272 272 273 273 273 272 272 273 273 274 274 274 275 275 276 276 276 275 276 275 275 275 274 274 273 272 272 272 272 271 271 271 271 271 271 271 271 271 270 270 270 270 269 269 268 268 267 267 266 266 266 266
269 269 269 270 270 271 272 272 272 271 271 271 272 272 272 272 272 272 272 273 274 274 274 274 275 275 275 275 275 275 275 275 275 275 274 273 273 273 272 272 271 271 271 270 271 271 270 270 270 269 269 269 268 268 268 268 267 267 266 266 266 266 266
268 269 270 270 270 271 271 271 271 272 271 271 271 271 272 272 271 271 271 272 272 273 274 274 274 275 275 275 274 275 274 275 275 275 274 273 273 273 272 271 271 271 270 270 270 270 270 269 269 269 269 268 268 268 268 267 267 266 266 265 265 265 265
268 269 269 269 269 269 270 270 270 270 271 271 271 271 271 271 271 271 270 271 271 272 273 274 274 274 274 274 274 274 274 274 275 275 274 274 273 272 272 271 271 270 270 270 270 269 269 269 269 268 268 268 268 268 267 267 267 266 266 265 265 264 265
267 267 267 267 267 267 268 268 268 268 269 270 270 270 270 270 270 270 270 270 270 271 272 273 273 274 274 274 273 273 274 274 274 275 274 274 273 272 271 271 270 270 270 269 269 268 267 268 268 268 268 268 268 268 267 267 267 266 265 265 265 264 264
265 265 266 266 266 266 267 267 267 267 267 268 269 270 270 270 270 270 269 269 269 270 272 272 273 273 273 273 273 273 273 274 274 274 274 273 272 271 271 270 270 270 269 269 268 268 267 267 267 267 267 267 267 267 267 267 266 266 266 265 265 264 264
264 265 265 265 266 266 267 267 267 267 267 267 267 268 269 270 270 269 269 269 269 269 271 271 272 272 272 272 272 272 273 273 273 273 272 272 271 271 270 270 270 269 269 268 268 268 267 267 267 267 267 266 266 266 266 266 266 266 265 265 265 264 264
264 265 265 265 266 266 266 266 267 266 266 266 266 267 268 269 269 269 269 268 268 269 270 271 271 271 271 271 271 272 272 272 272 272 271 270 270 270 269 269 269 269 269 268 268 268 267 267 267 266 266 266 266 266 266 266 265 265 265 265 264 263 263
264 264 265 265 265 265 265 265 266 266 266 266 267 267 268 269 269 269 269 268 268 268 269 270 270 270 270 270 271 271 271 270 270 270 270 270 269 269 269 269 268 268 268 268 268 267 267 266 266 266 265 265 265 265 265 265 265 265 264 264 263 262 262
263 264 264 264 264 264 264 265 266 266 266 266 267 267 268 268 269 269 268 268 268 268 268 269 269 269 269 269 269 269 269 269 269 269 269 269 269 268 268 268 268 267 267 267 267 266 266 266 265 265 264 264 264 264 265 265 264 264 263 263 261 261 261
262 262 263 263 263 263 264 264 265 265 266 266 267 267 267 268 268 268 268 268 267 267 267 268 268 268 268 268 268 268 268 268 268 268 268 268 268 267 267 267 267 266 266 266 266 265 265 265 264 264 264 264 263 264 264 264 263 263 262 262 261 261 261
261 261 262 262 263 263 264 264 264 265 265 266 266 266 266 267 267 268 268 268 267 266 266 267 267 267 267 267 267 267 267 267 267 267 267 267 266 266 266 265 265 265 265 265 265 264 264 264 263 263 263 263 263 263 263 263 262 261 261 261 261 261 261
260 261 262 262 262 262 262 263 264 264 265 265 264 264 264 265 266 266 267 267 267 266 265 266 266 266 266 266 266 266 266 266 266 266 266 266 265 265 265 264 264 264 264 264 264 264 263 263 263 263 262 262 262 262 262 261 261 260 260 260 261 261 261
259 260 260 260 260 261 261 262 263 263 263 263 263 263 263 263 264 265 266 266 266 265 265 265 265 265 265 265 265 265 265 265 265 265 264 264 264 264 264 264 263 263 263 263 263 263 263 262 262 262 262 262 261 261 260 260 260 260 260 260 260 260 261
258 258 258 259 259 260 260 261 261 262 262 262 262 262 262 262 262 263 264 265 265 265 265 265 265 265 265 264 264 264 264 264 264 264 263 263 263 263 263 263 263 262 262 262 262 262 262 262 262 262 261 261 261 260 260 260 260 260 260 260 260 260 260
257 257 258 258 258 259 259 259 260 261 261 262 261 261 261 261 261 261 262 263 263 263 264 264 264 265 265 264 264 264 264 264 264 263 263 263 263 262 262 262 262 262 262 262 262 262 262 262 261 261 261 261 261 260 259 259 259 260 260 260 260 260 260
257 257 257 257 257 258 258 259 259 260 261 261 260 260 260 260 260 260 260 260 261 261 262 262 263 263 264 264 264 264 264 264 263 263 263 263 262 262 262 262 262 262 262 262 262 262 262 261 261 261 261 260 260 260 259 260 260 260 261 261 260 260 260
Wind_Speed
33 34 35 35 36 37 38 38 38 38 39 39 39 39 39 39 38 38 38 38 38 38 37 38 38 39 39 37 37 37 36 36 36 35 34 33 32 32 31 30 26 18 12 12 14 15 16 17 16 15 15 18 19 18 17 17 16 16 16 16 17 17 18
31 32 33 34 35 36 37 38 39 39 39 39 39 39 39 39 38 38 38 38 38 38 38 38 39 39 39 38 38 38 37 36 35 35 35 35 34 34 34 33 30 25 18 15 16 18 18 17 17 16 15 16 18 17 16 16 15 15 16 17 17 19 19
28 30 31 32 34 35 36 37 38 39 39 40 40 39 39 39 39 39 39 39 39 39 39 39 39 39 39 37 37 38 37 36 36 35 35 36 36 36 35 34 33 30 24 20 19 21 21 19 18 18 16 16 18 17 17 16 16 16 16 17 18 19 20
23 25 28 30 32 33 34 35 37 38 39 40 40 40 40 40 40 40 40 41 41 40 39 39 39 40 39 38 38 38 37 36 35 35 35 36 36 36 36 35 34 33 29 24 21 21 22 22 20 18 18 18 18 18 18 19 18 18 18 18 19 20 20
13 16 20 24 27 29 31 32 34 35 37 38 39 40 41 40 40 41 41 42 42 41 40 40 41 40 39 38 38 38 37 37 37 36 36 36 36 36 35 34 33 33 31 27 23 21 21 21 20 19 18 19 19 18 18 19 19 20 20 20 21 21 21
6 8 10 14 17 21 25 28 30 33 34 35 37 38 39 40 40 40 41 41 42 41 41 41 41 41 40 39 39 39 38 38 38 38 37 37 37 36 35 34 33 32 30 28 26 22 20 20 20 20 19 19 19 19 19 20 20 21 22 22 23 24 24
8 8 8 9 10 12 15 19 23 27 30 32 34 36 37 38 39 39 40 40 41 41 41 42 42 42 41 40 41 41 40 39 39 39 39 39 38 37 35 34 32 30 29 27 24 22 21 21 20 20 20 19 18 18 20 21 21 23 24 24 25 26 26
12 12 11 10 9 9 9 11 14 18 23 27 31 33 35 36 37 38 38 39 40 40 41 41 42 42 42 42 42 42 41 41 41 39 39 39 38 36 35 33 32 30 28 27 25 22 22 21 20 19 19 18 17 18 21 21 21 23 24 22 22 23 22
15 14 14 13 11 10 9 9 9 10 13 18 22 26 30 33 35 36 37 38 38 38 39 40 41 41 42 42 43 43 42 42 42 41 40 39 37 36 35 33 31 30 28 26 24 22 21 20 20 20 18 18 19 21 23 21 20 23 23 20 21 21 19
16 16 15 15 14 13 12 11 11 10 10 11 13 16 20 24 29 32 34 36 36 37 37 38 39 40 41 41 42 42 42 42 42 42 42 41 40 38 37 34 32 31 30 28 25 23 21 19 19 21 21 21 22 22 22 21 20 22 22 19 19 19 17
17 17 16 16 16 15 15 14 14 14 14 14 14 14 14 17 21 24 28 32 34 35 36 36 37 39 39 40 40 40 41 41 42 42 42 42 42 41 40 38 35 33 31 29 26 24 23 21 20 21 21 22 22 21 21 22 21 21 20 17 15 14 13
19 18 18 18 18 17 17 16 15 15 16 16 16 17 17 18 19 21 23 27 30 32 34 34 35 36 37 38 39 39 40 41 41 42 42 42 42 42 42 42 40 37 34 32 29 25 24 24 22 21 22 22 20 20 21 21 21 20 20 19 18 16 14
19 19 19 20 20 20 19 18 17 16 16 16 16 16 17 18 20 21 23 24 26 28 31 32 33 34 35 37 37 38 38 39 39 40 40 40 40 41 40 41 41 40 37 36 33 29 27 27 25 23 23 21 19 19 20 20 21 22 22 22 22 22 21
20 20 20 21 22 22 22 21 19 19 18 18 17 17 16 17 19 20 22 24 25 26 28 30 31 32 34 35 35 36 36 37 37 36 36 37 38 39 39 38 39 38 36 34 32 30 29 28 26 23 22 20 19 19 20 20 21 22 22 23 24 25 24
22 21 21 21 22 24 25 23 22 20 20 20 19 18 18 19 19 20 22 23 24 25 26 28 30 32 33 34 34 35 36 36 36 35 35 36 36 37 37 38 38 38 36 33 30 29 27 25 23 21 20 19 19 19 20 20 21 21 21 22 23 23 23
23 23 23 23 22 24 26 25 22 21 21 21 21 20 20 21 21 22 23 24 23 24 25 26 28 31 32 33 34 35 35 35 35 35 35 35 35 35 35 36 37 36 35 32 29 28 26 23 20 18 17 17 17 18 18 18 20 21 20 20 20 20 21
23 24 24 24 23 24 26 26 23 21 21 22 21 21 22 22 23 23 24 24 24 23 23 24 26 28 30 32 33 33 33 34 34 35 35 34 34 32 32 33 33 32 30 29 28 26 24 21 18 16 16 16 17 18 17 18 22 23 22 20 16 15 18
23 23 23 23 23 23 25 26 22 20 22 24 23 22 21 22 23 24 25 25 24 23 22 22 23 25 28 30 31 32 32 32 34 35 35 34 32 31 30 30 30 29 28 25 23 22 21 18 17 16 16 17 18 18 18 20 25 26 23 22 19 16 16
21 22 22 23 23 23 24 24 22 20 23 24 22 21 20 21 22 23 24 24 24 24 22 21 22 23 25 28 29 31 30 29 32 35 35 34 32 30 31 31 30 31 30 26 23 22 21 20 19 18 18 19 20 19 18 19 22 22 21 21 20 18 14
21 23 24 22 22 22 22 21 21 21 23 22 20 19 19 20 20 21 22 22 23 23 23 22 22 22 24 25 27 29 29 27 30 34 35 34 32 31 32 32 31 31 31 29 28 26 24 23 22 21 21 22 23 24 23 22 21 20 20 19 19 18 16
24 26 25 21 21 22 21 20 22 23 21 19 19 18 17 18 19 19 20 20 21 22 22 22 22 23 23 24 26 28 28 26 28 32 34 34 34 35 33 31 31 30 28 27 27 25 23 23 23 23 23 23 24 25 25 25 24 23 22 22 21 20 19
24 24 22 19 19 21 20 20 23 22 19 18 20 19 17 17 18 17 18 19 20 20 21 21 23 24 23 24 26 28 28 27 27 30 33 35 36 35 30 26 28 27 25 24 23 23 23 24 24 24 25 25 25 25 24 24 25 25 24 24 24 22 22
20 19 18 18 18 18 18 20 22 20 19 20 21 20 18 17 17 17 17 18 20 21 21 21 22 23 23 24 26 28 28 28 27 28 31 34 34 32 28 25 24 23 22 22 22 22 24 25 25 25 26 26 26 25 23 23 22 22 23 22 21 20 20
17 17 18 18 19 19 20 22 23 22 20 21 20 20 20 19 19 19 19 18 19 20 20 20 22 23 23 24 26 26 26 25 25 25 26 29 30 29 26 24 22 21 21 21 21 21 22 24 25 26 26 26 25 24 24 23 22 21 20 20 19 17 17
18 18 19 19 20 22 22 22 23 24 23 22 20 20 20 20 20 20 19 18 18 18 18 19 20 21 21 22 23 23 22 22 22 19 18 21 25 24 23 23 22 21 20 20 21 21 22 23 24 24 23 22 22 23 25 25 24 22 21 20 20 19 19
18 18 19 20 21 22 22 21 22 23 24 24 23 21 20 20 20 20 19 17 16 16 16 16 18 18 18 18 18 19 18 18 18 15 12 15 19 19 19 19 18 17 18 19 20 21 22 22 22 21 19 18 19 23 25 25 24 24 23 22 22 21 21
17 16 17 19 18 18 19 20 20 22 23 25 24 21 19 19 20 19 17 16 15 14 13 13 14 14 13 14 15 16 15 14 14 14 12 13 13 13 13 13 13 15 17 18 19 20 21 20 19 18 17 17 18 21 23 24 25 24 23 22 21 20 20
17 17 18 17 16 17 18 19 20 21 22 23 23 22 20 19 18 17 15 15 14 12 10 10 10 10 11 13 14 14 13 12 11 12 11 11 10 10 10 11 12 14 16 17 19 20 20 19 18 17 17 17 18 20 21 23 25 25 24 23 20 19 18
18 18 19 19 19 19 20 19 20 20 20 20 22 22 19 17 15 14 15 14 12 10 9 9 10 11 12 13 14 13 12 11 11 11 12 12 12 12 13 15 16 17 18 19 19 19 19 18 17 17 16 16 17 19 21 24 25 25 23 22 20 20 19
19 20 21 21 22 21 20 20 21 21 19 18 18 18 17 16 16 16 16 13 10 10 10 9 10 11 11 12 12 13 12 12 12 12 13 14 15 15 17 18 19 20 20 20 19 19 19 18 17 16 16 16 17 19 21 23 24 24 23 22 21 21 20
20 19 18 18 20 20 19 19 19 18 18 17 15 15 15 15 14 15 16 14 10 9 12 12 11 11 11 11 11 12 13 13 13 15 16 17 18 18 19 19 21 21 20 20 20 19 18 17 16 16 16 17 19 20 21 23 23 22 22 22 22 21 19
18 16 15 16 18 19 19 18 17 17 17 16 15 15 16 16 15 13 12 13 12 10 11 13 13 13 12 12 12 14 15 15 16 17 18 19 19 19 19 20 20 20 20 19 19 19 18 18 17 17 18 18 19 19 20 22 22 22 22 22 20 19 18
14 15 17 19 19 18 18 18 18 18 17 16 15 15 17 17 17 15 13 10 13 15 13 13 14 15 15 15 15 16 17 17 18 18 18 18 19 19 19 19 18 18 18 19 19 19 19 18 18 18 18 18 18 19 20 22 23 24 23 21 19 18 18
17 18 20 19 18 17 17 17 17 16 16 15 14 13 14 17 18 17 15 11 10 15 17 16 16 16 16 16 16 17 17 17 17 17 17 17 18 19 18 17 16 17 18 18 18 18 18 17 17 17 17 17 17 18 20 22 23 24 22 20 19 19 19
21 21 20 20 20 19 18 17 16 15 13 12 12 12 14 16 16 15 14 13 10 10 12 15 17 18 17 17 17 17 17 17 17 16 17 17 18 18 18 17 17 17 17 17 17 17 17 16 16 17 17 17 18 19 20 22 23 23 22 20 20 20 20
22 23 23 22 21 19 18 16 15 14 13 12 12 14 14 14 14 13 14 14 14 12 11 11 13 16 18 19 19 18 18 18 17 17 17 17 17 17 17 17 17 17 17 16 16 16 16 17 17 17 17 17 18 20 22 23 22 21 21 21 20 21 21
Wind_Direction
252 251 251 250 249 248 248 248 248 248 247 245 244 244 244 244 242 241 241 242 243 243 243 244 245 246 247 247 246 246 244 242 240 238 237 236 235 234 233 229 223 226 240 228 214 211 206 205 205 201 203 203 199 201 207 211 218 225 232 239 246 253 258
257 256 255 253 251 251 250 250 249 249 247 245 244 243 242 242 240 240 240 240 240 241 242 243 244 246 247 246 246 246 245 243 240 237 236 234 234 234 233 231 227 227 234 232 219 212 208 205 203 202 203 203 200 202 209 216 224 231 237 244 250 255 259
263 261 259 256 255 253 252 251 250 249 247 246 245 243 243 242 240 240 240 239 240 241 241 242 242 244 245 245 245 245 245 244 242 239 237 235 234 234 234 233 230 229 230 231 225 219 216 214 214 214 214 216 218 221 226 232 238 242 245 248 251 254 256
268 266 263 259 257 255 254 252 251 249 248 247 246 245 244 243 242 241 241 241 242 242 241 240 241 243 244 242 242 243 243 242 242 239 237 236 235 234 234 233 231 230 230 230 227 224 224 224 224 225 226 229 233 237 243 246 249 251 251 250 251 253 255
281 275 270 266 264 262 259 258 256 253 251 249 248 247 246 244 243 242 242 242 243 242 242 241 242 243 243 241 240 240 241 241 241 240 237 235 234 233 233 233 231 230 229 228 227 226 225 226 227 229 231 234 237 241 246 250 252 254 255 254 254 255 258
322 307 293 281 274 271 268 266 263 259 256 254 252 250 248 246 245 244 243 243 243 244 243 243 244 245 243 240 239 239 240 240 240 239 237 235 234 233 231 230 229 228 226 226 228 226 223 223 226 229 232 235 239 243 248 252 255 256 256 257 259 260 262
332 332 329 316 298 286 278 273 269 265 262 260 256 254 251 249 248 247 246 246 245 245 245 245 246 245 244 242 241 242 241 240 240 239 238 237 235 232 229 226 225 224 222 222 223 221 220 220 223 228 232 235 242 247 251 254 258 259 259 259 261 263 265
331 324 322 322 319 312 300 287 278 272 268 264 260 257 255 253 251 250 249 248 248 247 247 247 247 246 245 245 245 245 244 242 240 238 237 236 234 230 227 223 221 219 218 217 216 216 217 218 220 225 230 235 239 244 249 251 256 262 264 265 266 268 270
341 331 321 315 313 312 311 306 297 286 278 272 267 262 259 257 255 254 253 252 251 250 249 248 248 248 247 247 247 247 246 244 243 239 236 235 231 226 223 220 217 215 212 210 211 212 213 214 219 222 225 230 234 240 249 254 255 260 266 271 273 273 268
342 339 333 324 316 310 306 303 300 294 288 283 279 274 270 266 262 259 257 255 254 253 252 251 250 250 250 249 249 248 246 245 243 240 239 237 234 228 222 216 213 213 211 208 208 209 207 208 217 222 225 233 240 245 252 255 253 257 264 269 273 273 268
337 336 335 331 325 320 314 308 303 297 291 286 284 282 279 276 272 268 264 260 257 255 254 253 253 253 252 250 249 247 246 244 242 240 239 237 236 234 228 221 215 212 210 209 210 212 210 211 220 227 230 237 244 247 252 254 253 255 258 259 259 264 266
331 330 329 328 325 322 319 317 315 310 303 295 289 283 279 276 275 274 271 267 262 259 257 255 254 253 252 251 249 248 246 244 242 240 238 235 234 233 231 228 224 220 215 213 212 212 213 217 224 229 233 237 243 249 252 254 253 252 252 251 248 249 253
326 325 324 323 322 320 317 316 318 317 314 310 303 296 288 280 277 275 274 272 269 265 261 257 254 253 251 251 250 247 245 243 240 238 236 233 232 231 229 228 228 227 227 224 219 215 218 224 228 231 238 244 250 253 251 248 248 248 248 247 247 250 255
322 320 320 319 319 317 314 312 314 314 314 313 311 307 301 292 284 279 276 275 273 270 265 260 256 252 251 251 249 246 243 240 237 234 230 228 227 227 225 223 223 224 226 228 226 224 227 232 234 239 248 255 256 254 251 247 248 249 249 250 253 258 261
318 316 316 316 315 312 310 309 311 311 311 310 310 310 307 299 292 285 280 277 275 272 269 266 261 255 252 250 248 246 243 238 234 229 225 222 222 221 220 219 219 219 221 223 225 229 233 236 240 246 254 258 258 257 258 258 258 259 258 257 259 260 260
318 315 312 311 311 310 308 308 309 310 308 308 309 310 308 303 299 293 286 281 278 276 273 270 265 258 253 249 247 245 242 238 232 225 221 218 217 216 216 216 218 219 221 223 226 232 237 239 244 249 254 257 258 258 262 262 258 255 252 252 255 256 255
315 313 310 307 305 306 305 306 308 307 304 305 309 310 307 304 303 299 293 287 284 281 278 273 268 261 255 249 245 243 240 235 229 222 218 215 212 211 213 215 215 215 218 223 229 234 238 240 244 247 248 250 251 254 255 249 244 243 241 239 245 250 249
310 310 309 307 304 303 303 304 304 303 301 302 305 306 305 304 304 301 297 293 288 285 282 277 271 264 257 249 245 242 238 232 226 221 216 213 210 208 210 212 211 210 213 217 223 228 231 234 239 241 240 239 240 242 239 235 238 241 236 230 233 241 249
308 308 308 306 303 302 301 297 294 297 301 302 303 302 300 302 303 300 298 296 292 289 286 281 275 268 259 251 245 242 236 227 222 219 217 212 207 206 209 212 212 212 212 210 210 213 218 222 228 232 234 237 241 243 242 243 245 242 231 228 235 239 242
308 308 306 305 304 305 303 297 294 299 302 301 300 301 301 300 299 298 298 296 292 288 284 280 275 270 261 251 244 242 236 224 218 220 219 212 207 209 214 214 214 216 216 214 213 215 218 223 228 233 238 243 249 253 256 259 260 252 240 236 240 239 235
309 304 300 303 308 308 304 300 297 299 301 302 301 300 300 299 299 298 297 295 292 285 278 273 270 267 262 251 243 241 235 222 217 221 219 214 213 217 218 215 215 217 217 218 219 221 224 229 234 239 244 248 251 254 257 261 264 265 259 251 247 244 241
310 304 301 308 313 311 310 310 304 297 296 304 305 301 299 298 298 300 299 295 293 288 279 271 266 265 262 251 243 242 237 229 225 222 219 219 221 220 217 215 218 219 216 218 222 224 228 234 238 242 246 250 252 253 256 260 263 266 265 261 257 251 246
312 315 318 319 319 318 321 324 320 312 308 307 303 298 300 300 297 300 303 299 294 290 285 275 267 265 262 252 245 241 237 233 228 220 218 222 222 219 216 215 217 217 215 217 221 224 228 233 237 242 246 250 252 254 256 260 263 264 262 262 261 254 249
320 325 323 320 318 319 320 321 322 322 320 316 307 298 297 300 299 301 305 304 298 294 289 280 270 266 261 252 244 238 232 229 226 220 221 222 218 215 213 212 211 213 212 213 217 220 226 231 235 240 246 250 255 258 257 257 260 261 258 257 257 253 247
319 319 317 316 315 315 316 319 320 319 318 319 317 308 299 296 298 302 306 306 302 299 293 281 271 264 258 251 243 234 227 225 225 222 219 215 209 204 202 201 203 207 207 209 214 218 224 231 236 242 249 255 260 260 258 257 257 256 254 251 250 247 244
312 313 313 310 308 308 312 317 320 320 318 317 316 313 306 296 294 300 306 306 304 303 296 280 268 261 255 248 238 227 221 220 218 209 191 186 190 191 191 193 197 201 205 211 217 222 229 236 242 247 253 256 257 256 256 258 257 254 251 248 245 243 242
306 309 310 306 306 312 317 319 320 322 323 320 316 315 312 301 293 295 303 307 306 302 291 274 263 255 244 231 221 216 212 208 205 198 183 178 184 190 195 203 210 215 220 227 232 236 242 244 245 247 248 248 250 254 256 257 254 251 249 245 241 237 236
306 308 306 306 315 324 322 319 317 316 318 321 317 312 310 304 295 290 297 307 307 295 275 253 236 225 213 206 203 203 203 199 198 201 204 207 213 220 228 235 239 241 243 245 245 245 244 241 238 239 242 245 248 253 255 254 250 247 245 240 232 225 226
306 307 308 311 319 322 314 310 312 313 314 316 312 306 302 300 296 290 292 299 298 282 262 234 209 199 195 195 195 196 198 203 207 212 220 227 234 241 246 249 250 250 250 248 245 242 240 238 238 241 244 246 248 251 252 249 244 241 238 230 222 219 222
304 309 311 311 311 310 304 301 307 312 311 312 317 316 308 300 293 285 282 287 289 270 251 230 209 200 194 192 195 198 202 208 214 221 230 238 242 245 247 248 249 250 250 248 245 243 241 241 241 243 243 245 248 251 249 244 240 235 229 221 215 215 219
308 310 310 307 308 310 308 305 307 311 311 315 327 334 330 322 311 291 274 272 274 260 244 235 226 218 211 206 206 211 217 224 230 236 242 246 248 249 248 248 250 249 248 247 246 245 245 245 245 247 249 250 250 249 244 239 233 226 222 218 214 215 222
314 314 314 316 319 320 317 312 309 312 319 328 334 333 330 331 329 316 291 267 252 243 240 237 234 235 233 227 225 227 232 237 241 243 245 247 248 248 246 245 247 248 247 248 249 251 252 253 253 254 254 253 250 245 238 231 224 217 213 213 214 220 230
319 321 323 325 325 322 319 315 313 315 321 330 334 333 331 326 318 316 313 279 236 227 232 233 231 235 237 235 235 237 239 240 243 244 245 245 247 249 250 249 251 252 252 253 255 258 259 259 259 257 254 252 249 242 233 225 218 212 209 210 217 225 233
325 327 330 330 328 326 326 324 321 320 320 325 332 339 338 329 316 307 307 297 251 232 232 229 228 232 236 238 240 241 242 244 246 247 248 248 251 254 257 257 256 254 254 255 258 259 259 259 258 254 249 248 245 237 228 221 214 209 208 212 220 229 237
325 331 334 331 328 328 329 330 329 325 320 326 339 342 335 332 330 323 316 317 311 281 256 243 237 238 241 245 247 246 246 249 252 252 252 253 255 257 258 257 254 253 254 256 256 256 257 255 253 249 246 244 240 230 220 215 212 211 214 220 227 234 240
322 329 333 331 330 330 329 330 332 328 321 324 333 336 335 339 346 344 333 327 326 322 309 288 268 258 253 252 252 251 251 252 254 256 257 256 257 258 256 254 252 251 252 253 253 254 255 252 248 245 241 237 233 227 219 216 216 219 224 230 235 239 242